GW4700 Weather Reports


Display with metric or nautical units.
time (UTC)temp
F
wind
direction
speed
MPH
gust
MPH
rain 1hr
in
rain 24hr
in
rain mn
in
humidity
%
barometer
mb
20260503200903 63 191 0.0 13.0 0.00 0.07 0.07 48 1010.0
20260503200003 62 184 3.0 21.0 0.00 0.07 0.07 48 1010.2
20260503195403 63 189 5.0 24.0 0.00 0.07 0.07 47 1010.2
20260503194503 62 187 2.0 24.0 0.00 0.07 0.07 49 1010.5
20260503193604 61 180 1.0 15.0 0.00 0.07 0.07 53 1010.6
20260503192703 60 178 1.0 12.0 0.00 0.07 0.07 54 1010.9
20260503191803 59 179 0.0 10.0 0.00 0.07 0.07 62 1011.0
20260503190903 57 174 0.0 6.0 0.00 0.07 0.07 71 1011.1
20260503190004 55 141 1.0 8.0 0.00 0.07 0.07 75 1011.3
20260503184503 52 121 2.0 6.0 0.02 0.07 0.07 83 1012.0
20260503183603 50 117 1.0 5.0 0.03 0.07 0.07 82 1012.6
20260503182703 50 136 1.0 3.0 0.03 0.07 0.07 81 1012.9
20260503181803 50 170 2.0 5.0 0.03 0.07 0.07 80 1013.4
20260503181117 50 180 2.0 5.0 0.04 0.07 0.07 79 1013.6
20260503180003 50 205 4.0 13.0 0.05 0.07 0.07 77 1014.2
20260503175403 50 209 2.0 13.0 0.04 0.06 0.06 76 1014.2
20260503174503 50 185 0.0 4.0 0.04 0.05 0.05 76 1014.0
20260503173603 50 0 0.0 0.0 0.03 0.04 0.04 76 1014.3
20260503172703 50 193 1.0 6.0 0.04 0.04 0.04 76 1014.5
20260503171803 50 195 2.0 8.0 0.04 0.04 0.04 76 1014.6
20260503170903 50 200 6.0 15.0 0.03 0.03 0.03 74 1014.7
20260503150903 56 0 0.0 0.0 0.00 0.00 0.00 55 1014.7
20260503140217 52 209 3.0 18.0 0.00 0.00 0.00 60 1015.5
20260503130903 50 180 0.0 4.0 0.00 0.00 0.00 62 1015.8
20260503090217 42 0 0.0 0.0 0.00 0.00 0.00 68 1015.8
20260503080903 42 0 0.0 0.0 0.00 0.00 0.00 67 1015.8
20260503072703 42 0 0.0 0.0 0.00 0.00 0.00 66 1016.0
20260503072018 42 0 0.0 0.0 0.00 0.00 0.00 66 1016.0
20260503070903 42 0 0.0 0.0 0.00 0.00 0.00 67 1016.0
20260503054503 42 199 0.0 4.0 0.00 0.00 0.00 68 1016.9
20260503053603 43 198 0.0 3.0 0.00 0.00 0.00 68 1016.9
20260503052703 43 0 0.0 1.0 0.00 0.00 0.00 67 1016.9
20260503051803 43 0 0.0 0.0 0.00 0.00 0.00 67 1017.0
20260503050903 43 0 0.0 0.0 0.00 0.00 0.00 67 1017.1
20260503050004 43 194 0.0 4.0 0.00 0.00 0.00 66 1017.1
20260503045617 43 194 0.0 4.0 0.00 0.00 0.00 66 1017.1
20260503044503 43 194 2.0 6.0 0.00 0.00 0.00 66 1017.1
20260503043603 44 196 2.0 4.0 0.00 0.00 0.00 66 1017.1
20260503042703 44 197 2.0 6.0 0.00 0.00 0.00 65 1017.1
20260503042019 44 194 2.0 6.0 0.00 0.00 0.00 65 1017.1
20260503040903 44 194 0.0 4.0 0.00 0.00 0.00 65 1017.2
20260503040003 44 203 0.0 1.0 0.00 0.00 0.00 65 1017.2
20260503035403 44 196 0.0 1.0 0.00 0.00 0.00 65 1017.2
20260503034718 44 0 0.0 1.0 0.00 0.00 0.00 66 1017.2
20260503033603 43 204 0.0 3.0 0.00 0.00 0.00 66 1017.2
20260503032703 42 264 0.0 2.0 0.00 0.00 0.00 68 1017.2
20260503031803 42 0 0.0 1.0 0.00 0.00 0.00 70 1017.3
20260503030903 43 0 0.0 1.0 0.00 0.00 0.00 68 1017.4
20260503030217 43 266 0.0 1.0 0.00 0.00 0.00 66 1017.3
20260503025403 43 265 0.0 1.0 0.00 0.00 0.00 66 1017.4
20260503024503 43 0 0.0 1.0 0.00 0.00 0.00 65 1017.4
20260503023603 44 0 0.0 0.0 0.00 0.00 0.00 64 1017.4
20260503022703 44 266 0.0 1.0 0.00 0.00 0.00 63 1017.3
20260503021803 44 266 0.0 1.0 0.00 0.00 0.00 62 1017.3
20260503020903 44 266 0.0 1.0 0.00 0.00 0.00 63 1017.3
20260503020003 44 266 0.0 1.0 0.00 0.00 0.00 63 1017.2
20260503015403 44 0 0.0 1.0 0.00 0.00 0.00 63 1017.2
20260503014503 45 0 0.0 1.0 0.00 0.00 0.00 61 1017.2
20260503013603 45 265 0.0 1.0 0.00 0.00 0.00 61 1017.1
20260503012918 45 0 0.0 0.0 0.00 0.00 0.00 61 1017.1
20260503011803 46 0 0.0 0.0 0.00 0.00 0.00 59 1017.0
20260503010903 48 0 0.0 1.0 0.00 0.00 0.00 54 1017.0
20260503010003 49 0 0.0 1.0 0.00 0.00 0.00 52 1017.0
20260503005618 50 0 0.0 1.0 0.00 0.00 0.00 52 1017.0
20260503004503 51 265 0.0 1.0 0.00 0.00 0.00 49 1017.1
20260503003603 51 266 0.0 2.0 0.00 0.00 0.00 47 1017.1
20260503002703 52 258 1.0 2.0 0.00 0.00 0.00 46 1017.1
20260503002017 53 260 1.0 4.0 0.00 0.00 0.00 45 1017.1
20260503000903 53 249 3.0 7.0 0.00 0.00 0.00 42 1017.1
20260503000003 54 246 3.0 11.0 0.00 0.00 0.00 41 1017.1
20260502235403 55 267 1.0 3.0 0.00 0.00 0.00 40 1017.0
20260502234503 55 301 2.0 6.0 0.00 0.00 0.00 41 1017.1
20260502233603 55 272 2.0 6.0 0.00 0.00 0.00 40 1017.1
20260502232703 56 291 1.0 7.0 0.00 0.00 0.00 39 1017.2
20260502231804 56 285 1.0 5.0 0.00 0.00 0.00 41 1017.3
20260502230903 55 271 2.0 7.0 0.00 0.00 0.00 39 1017.3
20260502230003 55 268 2.0 5.0 0.00 0.00 0.00 38 1017.2
20260502225403 55 270 2.0 5.0 0.00 0.00 0.00 41 1017.3
20260502224503 55 265 3.0 7.0 0.00 0.00 0.00 39 1017.3
20260502223603 55 271 2.0 9.0 0.00 0.00 0.00 44 1017.4
20260502222703 55 267 4.0 10.0 0.00 0.00 0.00 39 1017.4
20260502221803 56 268 5.0 10.0 0.00 0.00 0.00 38 1017.4
20260502220903 55 267 2.0 10.0 0.00 0.00 0.00 38 1017.4
20260502220003 55 320 3.0 7.0 0.00 0.00 0.00 37 1017.3
20260502215403 55 300 4.0 11.0 0.00 0.00 0.00 38 1017.4
20260502214718 56 289 3.0 11.0 0.00 0.00 0.00 38 1017.3
20260502213603 55 343 3.0 12.0 0.00 0.00 0.00 39 1017.5
20260502212703 53 323 2.0 6.0 0.00 0.00 0.00 42 1017.5
20260502211804 53 316 2.0 7.0 0.00 0.00 0.00 38 1017.5
20260502210903 54 314 3.0 9.0 0.00 0.00 0.00 38 1017.5
20260502210003 54 325 2.0 7.0 0.00 0.00 0.00 40 1017.5
20260502205403 52 331 2.0 7.0 0.00 0.00 0.00 43 1017.7
20260502204717 53 295 2.0 8.0 0.00 0.00 0.00 40 1017.7
20260502203603 53 333 4.0 10.0 0.00 0.00 0.00 39 1017.9
20260502202703 53 322 2.0 7.0 0.00 0.00 0.00 43 1018.0
20260502201804 52 346 3.0 8.0 0.00 0.00 0.00 42 1018.1